Showing default

COSMOS 2263, 22802

Orbit data source: Space-Track

COSMOS 2263, 22802 is a payload satellite owned by GRU (CIS) in LEO that was launched on Thu, 16 Sep 1993 UTC via a ZENIT-2 launch vehicle from the Tyuratam Missile And Space Complex (TTMTR). Payload-class satellites include a variety of spacecraft equipped with specific instruments for various scientific and technological missions. These include communications satellites like Starlink; space stations such as the ISS; scientific satellites like the Hubble; Earth observation satellites from companies like Planet Labs, Umbra, and HawkEye 360; GPS; miniature CubeSats for education and research; and military/defense satellites.

Loading next visibility...
Identifier
22802, 1993-059A
Orbit
LEO
Country
Flag of CISCIS
Related business
Manufacturer
Yuzhnoe
Mission
Defense Sigint
Bus & Motor
TSELINA-2, Unknown motor
Mass
3,250 kg wet, 3,250 kg dry
Launch date (UTC)
1993-09-16 (33 years ago)
Launch vehicle
ZENIT-2
Launch site
Tyuratam Missile And Space Complex (TTMTR)
Object type
Payload
Rocket body
Debris
Shape & HBR
Unknown shape, 9.5 m
Radar Cross Section
Large (>1 m²)

Expand to show TLE details & history
Last TLE update: 2 days ago

TLE from 2 days ago
0 COSMOS 2263
1 22802U 93059A   26171.35586164 -.00000224  00000-0 -92612-4 0  9999
2 22802  70.9287 245.8965 0025366 322.0639  37.8694 14.13658460689777
Epoch: 2026-06-20T08:32Z
TLE epoch observation values (Epoch: 2026-06-20T08:32:26.445Z)
Latitude
-0.00008°
Longitude
-150.78538°
Altitude
834.822 km
Speed
7.443 km/s
True Right ascension
16h 23m 35s
True Declination
0° 00' 00"
Sunlit
Object was in full shadow at epoch
Visualization orbit readout
Latitude
Unknown
Longitude
Unknown
Altitude
Unknown
Speed
Unknown
Apparent Right ascension
Unknown
Apparent Declination
Unknown
Sunlit
N/A
Visualization observer readout
Local Sidereal Time
00:50:13
Azimuth
Unknown
Elevation
Unknown
Doppler factor
Unknown
Orbital elements
Apogee altitude
863.134 km
Perigee altitude
826.491 km
Semi-major axis
7,222.95 km
Eccentricity
0.00254
Inclination
70.9287°
RAAN
245.8965°
Arg. of periapsis
322.0639°
True anomaly
38.04828°
Mean anomaly
37.8694°
Eccentric anomaly
37.9588°
Mean motion
3.53567 °/min
Orbital period
101.82 mins
BSTAR
-0.000092612
Loading maneuver chart data...
Computing Atmospheric mass density...
Loading historical data...
Loading historical data...
Loading historical data...
Loading historical data...
Loading historical data...
Loading historical data...
Loading historical data...

Documentation

Showing up to 5 results
|